• Join FlightAware (Why Join?)
  • Login
  • US Flag GB Flag 
10:41 EST


 

Airport Tracker/Info


-or-


 

Live Flight TrackerFlight Track Log ✈ RPA3321 ✈ 06-May-2013 ✈ KALB - KDCA

Flight Track Log - Related Links

Times and Time Zones

All times are in EDT time to prevent confusion due to time zone crossing. See the RPA3321 flight status page for this flight to view local times or setup timezone preferences in your user account.

Time Position Orientation Groundspeed Altitude Reporting Facility
EDT Latitude Longitude Course Direction KTS MPH feet Rate Location/Type
05:43 42.7256 -73.8053 138° Southeast 156 180 1,500  Level Boston Center
05:44 42.6939 -73.8581 231° Southwest 237 273 3,600 2,256 Climbing Boston Center
05:45 42.5258 -74.0002 171° South  Level Estimated
05:45 42.7428 -73.9300 313° West 285 328 6,500  Level Boston Center
05:46 42.4758 -73.9005 124° Southeast  Level FlightAware Approximate
05:46 42.7811 -74.0242 299° West 290 334 10,100  Level Boston Center
05:47 42.4024 -73.9684 172° South  Level Estimated
05:47 42.7464 -74.1336 247° West 251 289 12,600  Level Boston Center
05:48 42.3362 -73.8880 138° Southeast  Level FlightAware Approximate
05:48 42.6672 -74.1203 173° South 233 268 15,200  Level Boston Center
05:49 42.5744 -74.0614 155° Southeast 289 333 17,700 2,100 Climbing Boston Center
05:50 42.4917 -74.0197 160° South 335 386 19,400 1,950 Climbing Boston Center
05:51 42.3964 -73.9667 158° South 360 414 21,600 2,050 Climbing Boston Center
05:52 42.2900 -73.9808 186° South 375 432 23,500 1,850 Climbing Boston Center
05:53 42.1789 -74.0147 193° South 383 441 25,300 1,250 Climbing Boston Center
05:54 42.0658 -74.0508 193° South 404 465 26,000 350 Climbing Boston Center
05:55 41.9508 -74.0814 191° South 419 482 26,000  Level Boston Center
05:56 41.8378 -74.1147 192° South 419 482 26,000  Level Boston Center
05:57 41.7292 -74.1397 190° South 411 473 26,000  Level Boston Center
05:59 41.5347 -74.1936 192° South 425 489 26,000  Level New York Center
06:00 41.4214 -74.2267 192° South 420 483 26,000  Level New York Center
06:01 41.3122 -74.2542 191° South 420 483 26,000  Level New York Center
06:02 41.2025 -74.3008 198° South 425 489 26,000  Level New York Center
06:03 41.1122 -74.3953 218° Southwest 414 476 26,000  Level New York Center
06:04 41.0239 -74.4922 220° Southwest 419 482 26,000  Level New York Center
06:05 40.9333 -74.5861 218° Southwest 419 482 26,000  Level New York Center
06:06 40.8447 -74.6853 220° Southwest 424 488 26,000  Level New York Center
06:07 40.7581 -74.7817 220° Southwest 424 488 26,000  Level New York Center
06:08 40.6694 -74.8778 219° Southwest 419 482 26,000  Level New York Center
06:09 40.5806 -74.9736 219° Southwest 414 476 26,000  Level New York Center
06:10 40.4917 -75.0692 219° Southwest 414 476 26,000  Level New York Center
06:11 40.4050 -75.1619 219° Southwest 409 471 26,000  Level New York Center
06:12 40.3139 -75.2567 218° Southwest 414 476 26,000 -639 Level New York Center
06:13 40.2289 -75.3492 220° Southwest 414 476 24,700 -1,770 Descending New York Center
06:14 40.1419 -75.4411 219° Southwest 414 476 22,400 -1,373 Descending New York Center
06:15 40.0592 -75.5278 219° Southwest 409 471 22,000 -202 Descending New York Center
06:16 39.9767 -75.6144 219° Southwest 398 458 22,000  Level New York Center
06:17 39.9017 -75.7119 225° Southwest 391 450 22,000  Level New York Center
06:19 39.7500 -75.9500 230° Southwest 426 490 22,000 -560 Level Potomac TRACON
06:20 39.6667 -76.0833 231° Southwest 418 481 20,300 -2,126 Descending Potomac TRACON
06:21 39.6000 -76.2000 233° Southwest 403 464 17,500 -2,876 Descending Potomac TRACON
06:22 39.5333 -76.3000 229° Southwest 390 449 14,500 -3,053 Descending Potomac TRACON
06:23 39.4667 -76.4000 229° Southwest 371 427 11,700 -2,111 Descending Potomac TRACON
06:24 39.4000 -76.4667 218° Southwest 348 400 10,700 -895 Descending Potomac TRACON
06:25 39.3167 -76.5333 212° Southwest 339 390 10,000 -389 Descending Potomac TRACON
06:26 39.2500 -76.5833 210° Southwest 302 348 10,000  Level Potomac TRACON
06:27 39.1833 -76.6500 218° Southwest 281 323 10,000  Level Potomac TRACON
06:28 39.1167 -76.7167 218° Southwest 284 327 10,000  Level Potomac TRACON
06:29 39.0667 -76.7833 226° Southwest 280 322 10,000 -632 Level Potomac TRACON
06:30 39.0167 -76.8500 226° Southwest 280 322 8,800 -1,500 Descending Potomac TRACON
06:31 38.9667 -76.9167 226° Southwest 277 319 7,300 -1,474 Descending Potomac TRACON
06:32 38.9000 -76.9500 201° Southwest 257 296 6,000 -684 Descending Potomac TRACON
06:33 38.8500 -76.9500 180° South 214 246 6,000 -368 Level Potomac TRACON
06:34 38.7833 -76.9500 180° South 209 241 5,300 -500 Descending Potomac TRACON
06:35 38.7333 -76.9333 165° South 208 239 5,000 -684 Descending Potomac TRACON
06:35 38.6667 -76.9333 180° South 205 236 4,000 -1,053 Descending Potomac TRACON
06:36 38.6500 -77.0000 252° West 238 274 3,000 -1,053 Descending Potomac TRACON
06:37 38.7000 -77.0167 345° North 214 246 2,000 -579 Descending Potomac TRACON
06:38 38.7500 -77.0333 345° North 182 209 1,900 -500 Descending Potomac TRACON
06:39 38.7833 -77.0333 360° North 137 158 1,000 -750 Descending Potomac TRACON
06:40 38.8333 -77.0333 360° North 124 143 400 -600 Descending Potomac TRACON